FW2977 Weather Reports


Display with metric or nautical units.
time (UTC)temp
F
wind
direction
speed
MPH
gust
MPH
rain 1hr
in
rain 24hr
in
rain mn
in
humidity
%
barometer
mb
20260903061515 64 134 4.0 8.0 0.01 1.49 0.26 97 962.2
20260903060014 64 110 3.0 5.0 0.01 1.49 0.26 97 962.5
20260903054513 64 103 5.0 9.0 0.02 1.49 0.26 97 962.6
20260903053017 64 121 5.0 11.0 0.04 1.49 0.26 97 962.4
20260903051518 64 109 6.0 11.0 0.09 1.48 0.25 97 962.6
20260903050008 65 121 9.0 14.0 0.25 1.48 0.25 97 962.1
20260903044505 66 126 8.0 14.0 0.26 1.47 0.24 97 962.5
20260903043000 66 123 7.0 12.0 0.24 1.44 0.21 97 963.5
20260903041605 66 141 2.0 9.0 0.23 1.40 0.17 97 964.3
20260903040054 66 223 2.0 5.0 0.10 1.23 0.00 97 965.5
20260903034554 66 94 6.0 11.0 0.13 1.21 1.21 97 962.7
20260903033054 66 101 4.0 11.0 0.18 1.20 1.20 96 962.8
20260903031556 66 105 6.0 12.0 0.18 1.17 1.17 97 963.1
20260903030050 66 123 7.0 13.0 0.54 1.12 1.12 97 963.7
20260903024550 65 132 6.0 10.0 0.50 1.08 1.08 96 964.7
20260903023050 65 113 7.0 11.0 0.46 1.02 1.02 96 964.3
20260903021547 65 246 2.0 8.0 0.45 0.99 0.99 95 964.2
20260903020044 67 301 4.0 13.0 0.04 0.57 0.57 96 964.9
20260903014548 67 96 11.0 18.0 0.04 0.57 0.57 96 963.6
20260903013051 67 63 8.0 14.0 0.02 0.56 0.56 96 963.8
20260903011541 67 86 9.0 15.0 0.00 0.54 0.54 96 963.9
20260903010041 67 118 11.0 18.0 0.00 0.54 0.54 95 963.2
20260903004538 67 90 9.0 15.0 0.00 0.54 0.54 96 963.4
20260903003039 67 105 8.0 13.0 0.00 0.54 0.54 96 963.4
20260903001537 67 65 5.0 13.0 0.00 0.54 0.54 96 963.3
20260903000036 67 76 8.0 19.0 0.00 0.54 0.54 96 963.2
20260902234536 67 101 8.0 17.0 0.00 0.54 0.54 96 963.4
20260902233036 67 80 9.0 16.0 0.00 0.54 0.54 96 963.6
20260902231536 67 88 7.0 15.0 0.00 0.54 0.54 96 963.3
20260902230034 68 86 7.0 19.0 0.00 0.54 0.54 96 963.2
20260902224543 68 90 9.0 15.0 0.00 0.54 0.54 96 963.0
20260902223033 68 91 10.0 18.0 0.00 0.54 0.54 96 963.3
20260902221530 68 65 7.0 12.0 0.00 0.54 0.54 96 963.6
20260902220028 68 54 8.0 13.0 0.00 0.54 0.54 96 963.7
20260902214528 68 106 6.0 10.0 0.00 0.54 0.54 96 964.0
20260902213033 68 80 5.0 10.0 0.00 0.54 0.54 96 964.0
20260902211527 68 115 7.0 11.0 0.00 0.54 0.54 96 963.9
20260902210026 68 113 7.0 16.0 0.00 0.54 0.54 96 964.0
20260902204526 68 80 7.0 17.0 0.00 0.54 0.54 96 963.7
20260902203026 68 85 11.0 16.0 0.00 0.54 0.54 97 963.7
20260902201524 68 78 9.0 16.0 0.00 0.54 0.54 97 963.8
20260902200036 68 78 8.0 16.0 0.00 0.54 0.54 97 964.1
20260902194523 68 82 6.0 12.0 0.00 0.54 0.54 97 964.5
20260902193020 68 95 7.0 13.0 0.00 0.54 0.54 97 964.4
20260902191520 68 98 6.0 13.0 0.00 0.54 0.54 97 964.6
20260902190119 68 59 7.0 13.0 0.00 0.54 0.54 97 964.5
20260902184519 68 73 8.0 14.0 0.00 0.54 0.54 97 964.5
20260902183018 67 66 10.0 15.0 0.00 0.54 0.54 98 964.3
20260902181517 67 63 10.0 15.0 0.00 0.54 0.54 97 964.5
20260902180015 66 70 8.0 18.0 0.00 0.54 0.54 97 965.0
20260902174515 66 88 9.0 14.0 0.00 0.54 0.54 97 965.1
20260902173012 67 113 6.0 14.0 0.00 0.54 0.54 98 965.3
20260902171512 67 65 6.0 14.0 0.00 0.54 0.54 98 965.5
20260902170013 67 46 7.0 13.0 0.01 0.54 0.54 97 965.5
20260902164515 67 53 4.0 11.0 0.02 0.54 0.54 98 965.7
20260902163009 67 74 7.0 14.0 0.03 0.54 0.54 98 965.6
20260902161510 67 96 10.0 15.0 0.04 0.54 0.54 98 965.4
20260902160012 67 73 12.0 17.0 0.05 0.53 0.53 98 965.1
20260902154503 67 78 8.0 12.0 0.10 0.52 0.52 98 965.6
20260902153005 67 119 9.0 13.0 0.21 0.51 0.51 98 965.4
20260902151502 67 63 7.0 18.0 0.50 0.50 0.50 98 965.3
20260902150100 67 83 8.0 15.0 0.48 0.48 0.48 98 965.2
20260902144557 67 67 6.0 13.0 0.43 0.51 0.43 98 964.9
20260902143056 67 88 7.0 16.0 0.31 0.39 0.31 98 964.8
20260902141557 68 32 4.0 11.0 0.00 0.08 0.00 97 965.1
20260902140050 68 50 5.0 11.0 0.00 0.08 0.00 98 965.5
20260902134548 68 74 6.0 10.0 0.00 0.35 0.00 98 965.7
20260902133047 69 67 5.0 12.0 0.00 0.35 0.00 98 965.3
20260902131543 69 94 8.0 13.0 0.00 0.35 0.00 98 965.3
20260902130042 69 80 4.0 10.0 0.00 0.35 0.00 98 965.1
20260902124548 69 84 5.0 13.0 0.00 0.68 0.00 98 965.1
20260902123043 69 68 7.0 12.0 0.00 0.68 0.00 98 965.0
20260902121538 69 80 6.0 13.0 0.00 0.68 0.00 98 964.8
20260902120035 69 73 7.0 13.0 0.00 0.68 0.00 98 964.6
20260902114537 69 111 8.0 14.0 0.00 0.75 0.00 98 964.5
20260902113030 69 101 8.0 13.0 0.00 0.75 0.00 98 964.4
20260902111538 69 105 7.0 13.0 0.00 0.75 0.00 98 964.3
20260902110025 69 132 6.0 13.0 0.00 0.75 0.00 98 964.3
20260902104537 69 88 6.0 12.0 0.00 0.75 0.00 98 964.4
20260902103023 69 52 6.0 12.0 0.00 0.75 0.00 98 964.5
20260902101522 69 60 6.0 12.0 0.00 0.75 0.00 97 964.6
20260902100030 69 76 7.0 12.0 0.00 0.75 0.00 97 964.5
20260902094523 69 83 4.0 10.0 0.00 0.75 0.00 97 964.5
20260902093020 69 130 4.0 9.0 0.00 0.75 0.00 97 964.5
20260902091526 69 72 3.0 8.0 0.00 0.75 0.00 97 964.5
20260902090017 69 115 4.0 9.0 0.00 0.75 0.00 97 964.6
20260902084516 69 82 4.0 8.0 0.00 0.76 0.00 97 964.6
20260902083016 69 96 2.0 7.0 0.00 0.76 0.00 97 964.5
20260902081517 69 78 4.0 9.0 0.00 0.76 0.00 97 964.4
20260902080012 69 77 4.0 9.0 0.00 0.77 0.00 97 964.4
20260902074511 69 102 4.0 9.0 0.00 0.77 0.00 97 964.5
20260902073012 69 94 4.0 8.0 0.00 0.77 0.00 97 964.3
20260902071512 69 88 3.0 8.0 0.00 0.77 0.00 97 964.3
20260902070008 69 102 1.0 3.0 0.00 0.77 0.00 97 964.4
20260902064507 69 89 0.0 3.0 0.00 0.77 0.00 97 964.5
20260902063012 69 82 2.0 4.0 0.00 0.77 0.00 96 964.5